Location: Newark
(50.4878°N, 14.3742°E)
Time: 13:27:57
(UTC+00:00)

Envisat - Visible Passes

Search period start: 23 January 2020 00:00
Search period end: 02 February 2020 00:00
Orbit: 764 x 766 km, 98.1° (Epoch: 23 January)

Date Brightness Start Highest point End Pass type
(mag) Time Alt. Az. Time Alt. Az. Time Alt. Az.
23 Jan 6.4 04:09:57 10° ENE 04:10:58 11° E 04:12:00 10° E visible
23 Jan 3.4 05:45:52 10° NNE 05:50:58 69° ESE 05:56:02 10° S visible
23 Jan 3.7 17:05:19 10° S 17:10:19 58° W 17:15:21 10° NNW visible
24 Jan 4.8 05:09:21 10° NNE 05:14:00 35° E 05:18:37 10° SSE visible
24 Jan 3.0 16:28:27 10° SSE 16:33:30 72° ENE 16:38:35 10° N visible
24 Jan 5.8 18:09:36 10° SW 18:13:05 18° W 18:16:36 10° NW visible
25 Jan 5.9 04:33:26 10° NE 04:36:51 18° E 04:40:15 10° SE visible
25 Jan 3.0 06:11:21 10° NNE 06:16:27 75° WNW 06:21:31 10° SSW visible
25 Jan 4.7 17:31:17 10° SSW 17:35:56 36° W 17:40:37 10° NNW visible
26 Jan 3.8 05:34:36 10° NNE 05:39:38 56° E 05:44:37 10° S visible
26 Jan 3.3 16:53:55 10° S 16:58:59 72° WSW 17:04:06 10° NNW visible
26 Jan 6.4 18:37:35 10° W 18:38:57 11° W 18:40:20 10° WNW visible
27 Jan 5.2 04:58:14 10° NNE 05:02:37 28° E 05:06:59 10° SSE visible
27 Jan 3.1 16:17:16 10° SSE 16:22:14 59° ENE 16:27:15 10° N visible
27 Jan 5.5 17:57:43 10° SW 18:01:40 22° W 18:05:38 10° NW visible
28 Jan 6.2 04:22:39 10° NE 04:25:24 14° E 04:28:09 10° ESE visible
28 Jan 3.1 06:00:03 10° NNE 06:05:10 90° NNW 06:10:16 10° SSW visible
28 Jan 4.3 17:19:44 10° S 17:24:34 44° W 17:29:27 10° NNW visible
29 Jan 4.2 05:23:23 10° NNE 05:28:18 46° E 05:33:10 10° S visible
29 Jan 3.1 16:42:36 10° SSE 16:47:41 87° WSW 16:52:48 10° NNW visible
29 Jan 6.2 18:24:55 10° WSW 18:27:29 14° W 18:30:04 10° NW visible
30 Jan 5.5 04:47:10 10° NE 04:51:13 23° E 04:55:15 10° SE visible
30 Jan 5.2 17:45:57 10° SSW 17:50:15 27° W 17:54:35 10° NW visible
31 Jan 6.4 04:12:13 10° ENE 04:13:56 12° E 04:15:39 10° ESE visible
31 Jan 3.3 05:48:45 10° NNE 05:53:52 75° ESE 05:58:57 10° S visible
31 Jan 3.9 17:08:15 10° S 17:13:13 54° W 17:18:14 10° NNW visible
01 Feb 4.7 05:12:12 10° NNE 05:16:56 37° E 05:21:38 10° SSE visible
01 Feb 3.0 16:31:19 10° SSE 16:36:24 78° ENE 16:41:30 10° NNW visible
01 Feb 5.9 18:12:46 10° SW 18:16:02 17° W 18:19:19 10° NW visible
